TimeCST,TemperatureF,Dew PointF,Humidity,Sea Level PressureIn,VisibilityMPH,Wind Direction,Wind SpeedMPH,Gust SpeedMPH,PrecipitationIn,Events,Conditions,WindDirDegrees,DateUTC
12:53 AM,60.1,51.1,72,29.98,10.0,Calm,Calm,-,N/A,,Clear,0,2012-11-10 06:53:00
1:53 AM,57.0,51.1,81,29.99,10.0,Calm,Calm,-,N/A,,Clear,0,2012-11-10 07:53:00
2:53 AM,57.0,50.0,77,29.99,10.0,NE,4.6,-,N/A,,Clear,50,2012-11-10 08:53:00
3:53 AM,55.0,48.9,80,29.99,10.0,NNE,3.5,-,N/A,,Clear,20,2012-11-10 09:53:00
4:53 AM,54.0,48.9,83,30.01,10.0,North,3.5,-,N/A,,Clear,10,2012-11-10 10:53:00
5:53 AM,52.0,48.0,86,30.03,10.0,ENE,3.5,-,N/A,,Clear,60,2012-11-10 11:53:00
6:53 AM,52.0,48.9,89,30.04,10.0,ENE,4.6,-,N/A,,Clear,70,2012-11-10 12:53:00
7:53 AM,55.9,52.0,87,30.05,10.0,Calm,Calm,-,N/A,,Clear,0,2012-11-10 13:53:00
8:53 AM,66.9,55.9,68,30.05,10.0,ESE,4.6,-,N/A,,Scattered Clouds,120,2012-11-10 14:53:00
9:53 AM,70.0,55.9,61,30.03,10.0,Calm,Calm,-,N/A,,Scattered Clouds,0,2012-11-10 15:53:00
10:53 AM,75.9,54.0,46,30.01,10.0,South,12.7,-,N/A,,Scattered Clouds,190,2012-11-10 16:53:00
11:53 AM,75.9,54.0,46,29.97,10.0,SSE,9.2,-,N/A,,Clear,150,2012-11-10 17:53:00
12:53 PM,77.0,54.0,45,29.93,10.0,SE,11.5,20.7,N/A,,Clear,130,2012-11-10 18:53:00
1:53 PM,78.1,52.0,40,29.90,10.0,SE,15.0,19.6,N/A,,Clear,140,2012-11-10 19:53:00
2:53 PM,79.0,52.0,39,29.88,10.0,SE,11.5,17.3,N/A,,Clear,140,2012-11-10 20:53:00
3:53 PM,78.1,52.0,40,29.88,10.0,SE,12.7,18.4,N/A,,Clear,140,2012-11-10 21:53:00
4:53 PM,75.9,53.1,45,29.89,10.0,SSE,11.5,-,N/A,,Clear,150,2012-11-10 22:53:00
5:53 PM,73.0,53.1,49,29.90,10.0,SSE,8.1,-,N/A,,Clear,150,2012-11-10 23:53:00
6:53 PM,73.0,54.0,51,29.91,10.0,SE,8.1,-,N/A,,Clear,140,2012-11-11 00:53:00
7:53 PM,72.0,55.0,55,29.90,10.0,SE,10.4,17.3,N/A,,Partly Cloudy,140,2012-11-11 01:53:00
8:53 PM,72.0,55.0,55,29.89,10.0,SE,10.4,-,N/A,,Clear,140,2012-11-11 02:53:00
9:53 PM,71.1,55.0,57,29.88,10.0,SE,6.9,-,N/A,,Mostly Cloudy,130,2012-11-11 03:53:00
10:53 PM,72.0,55.9,57,29.88,10.0,East,9.2,-,N/A,,Overcast,100,2012-11-11 04:53:00
11:53 PM,73.0,55.9,55,29.87,10.0,South,9.2,18.4,N/A,,Partly Cloudy,180,2012-11-11 05:53:00